Time,TemperatureF,DewpointF,PressureIn,WindDirection,WindDirectionDegrees,WindSpeedMPH,WindSpeedGustMPH,Humidity,HourlyPrecipIn,Conditions,Clouds,dailyrainin,SoftwareType,DateUTC
2013-01-20 00:00:00,39.8,31.2,29.99,East,90,0.7,1.1,71,0.00,,,0.00,WUHU216HW,2013-01-20 05:00:00,
2013-01-20 00:03:00,39.8,31.2,29.99,West,270,0.4,1.8,71,0.00,,,0.00,WUHU216HW,2013-01-20 05:03:00,
2013-01-20 00:08:00,39.8,31.2,29.98,SSW,203,2.2,2.2,71,0.00,,,0.00,WUHU216HW,2013-01-20 05:08:00,
2013-01-20 00:13:00,40.0,31.3,29.97,South,180,0.9,2.2,71,0.00,,,0.00,WUHU216HW,2013-01-20 05:13:00,
2013-01-20 00:18:00,40.0,31.3,29.97,SW,225,1.6,2.2,71,0.00,,,0.00,WUHU216HW,2013-01-20 05:18:00,
2013-01-20 00:23:00,40.0,31.3,29.97,South,180,2.2,2.2,71,0.00,,,0.00,WUHU216HW,2013-01-20 05:23:00,
2013-01-20 00:28:00,40.0,31.3,29.97,SSW,203,1.6,2.2,71,0.00,,,0.00,WUHU216HW,2013-01-20 05:28:00,
2013-01-20 00:33:00,40.0,31.3,29.96,SSW,203,1.6,2.2,71,0.00,,,0.00,WUHU216HW,2013-01-20 05:33:00,
2013-01-20 00:38:00,40.1,31.5,29.96,SSW,203,1.3,1.6,71,0.00,,,0.00,WUHU216HW,2013-01-20 05:38:00,
2013-01-20 00:43:00,40.1,31.5,29.96,SSE,158,1.1,1.6,71,0.00,,,0.00,WUHU216HW,2013-01-20 05:43:00,
2013-01-20 00:48:00,40.3,31.7,29.95,SSE,158,0.2,2.0,71,0.00,,,0.00,WUHU216HW,2013-01-20 05:48:00,
2013-01-20 00:53:00,40.3,31.7,29.95,South,180,2.2,2.2,71,0.00,,,0.00,WUHU216HW,2013-01-20 05:53:00,
2013-01-20 00:58:00,40.5,31.9,29.95,South,180,1.8,2.2,71,0.00,,,0.00,WUHU216HW,2013-01-20 05:58:00,
2013-01-20 01:03:00,40.7,31.7,29.95,SSW,203,0.7,2.5,70,0.00,,,0.00,WUHU216HW,2013-01-20 06:03:00,
2013-01-20 01:08:00,40.7,31.7,29.95,South,180,1.6,2.5,70,0.00,,,0.00,WUHU216HW,2013-01-20 06:08:00,
2013-01-20 01:13:00,40.9,31.9,29.95,SSW,203,0.9,2.7,70,0.00,,,0.00,WUHU216HW,2013-01-20 06:13:00,
2013-01-20 01:18:00,41.0,31.7,29.94,SSE,158,0.7,2.7,69,0.00,,,0.00,WUHU216HW,2013-01-20 06:18:00,
2013-01-20 01:23:00,41.2,31.9,29.94,East,90,0.4,0.9,69,0.00,,,0.00,WUHU216HW,2013-01-20 06:23:00,
2013-01-20 01:28:00,41.2,31.9,29.94,SSW,203,1.3,1.3,69,0.00,,,0.00,WUHU216HW,2013-01-20 06:28:00,
2013-01-20 01:33:00,41.2,31.5,29.93,SSE,158,2.5,2.5,68,0.00,,,0.00,WUHU216HW,2013-01-20 06:33:00,
2013-01-20 01:38:00,41.4,31.7,29.93,SSW,203,1.1,2.5,68,0.00,,,0.00,WUHU216HW,2013-01-20 06:38:00,
2013-01-20 01:43:00,41.4,31.7,29.93,NE,45,2.5,2.5,68,0.00,,,0.00,WUHU216HW,2013-01-20 06:43:00,
2013-01-20 01:48:00,41.6,31.4,29.93,SSE,158,1.6,4.0,67,0.00,,,0.00,WUHU216HW,2013-01-20 06:48:00,
2013-01-20 01:53:00,41.6,31.4,29.93,SW,225,0.9,4.0,67,0.00,,,0.00,WUHU216HW,2013-01-20 06:53:00,
2013-01-20 01:58:00,41.6,31.4,29.93,SE,135,3.1,3.1,67,0.00,,,0.00,WUHU216HW,2013-01-20 06:58:00,
2013-01-20 02:03:00,41.8,31.6,29.92,SE,135,0.9,3.1,67,0.00,,,0.00,WUHU216HW,2013-01-20 07:03:00,
2013-01-20 02:08:00,41.8,31.6,29.93,SSE,158,0.2,3.1,67,0.00,,,0.00,WUHU216HW,2013-01-20 07:08:00,
2013-01-20 02:13:00,41.8,31.6,29.92,South,180,0.9,1.8,67,0.00,,,0.00,WUHU216HW,2013-01-20 07:13:00,
2013-01-20 02:18:00,41.8,31.6,29.92,West,270,0.2,1.1,67,0.00,,,0.00,WUHU216HW,2013-01-20 07:18:00,
2013-01-20 02:23:00,41.9,31.8,29.91,NE,45,1.3,1.8,67,0.00,,,0.00,WUHU216HW,2013-01-20 07:23:00,
2013-01-20 02:28:00,41.9,31.8,29.90,ESE,113,0.7,1.8,67,0.00,,,0.00,WUHU216HW,2013-01-20 07:28:00,
2013-01-20 02:33:00,41.9,31.8,29.90,NNE,23,0.4,1.3,67,0.00,,,0.00,WUHU216HW,2013-01-20 07:33:00,
2013-01-20 02:38:00,41.9,31.8,29.90,SSW,203,2.5,2.5,67,0.00,,,0.00,WUHU216HW,2013-01-20 07:38:00,
2013-01-20 02:43:00,41.8,31.6,29.90,South,180,0.9,2.5,67,0.00,,,0.00,WUHU216HW,2013-01-20 07:43:00,
2013-01-20 02:48:00,41.8,31.6,29.90,SSW,203,2.0,2.5,67,0.00,,,0.00,WUHU216HW,2013-01-20 07:48:00,
2013-01-20 02:53:00,41.8,31.6,29.90,SSE,158,0.9,2.0,67,0.00,,,0.00,WUHU216HW,2013-01-20 07:53:00,
2013-01-20 02:58:00,41.8,31.6,29.90,West,270,0.0,2.5,67,0.00,,,0.00,WUHU216HW,2013-01-20 07:58:00,
2013-01-20 03:03:00,41.8,31.6,29.90,South,180,2.0,2.5,67,0.00,,,0.00,WUHU216HW,2013-01-20 08:03:00,
2013-01-20 03:08:00,41.9,31.8,29.89,SSW,203,1.8,2.0,67,0.00,,,0.00,WUHU216HW,2013-01-20 08:08:00,
2013-01-20 03:13:00,41.8,31.6,29.89,West,270,0.7,2.0,67,0.00,,,0.00,WUHU216HW,2013-01-20 08:13:00,
2013-01-20 03:18:00,41.9,31.8,29.89,SSW,203,2.2,2.2,67,0.00,,,0.00,WUHU216HW,2013-01-20 08:18:00,
2013-01-20 03:23:00,41.9,31.8,29.89,ESE,113,0.0,2.2,67,0.00,,,0.00,WUHU216HW,2013-01-20 08:23:00,
2013-01-20 03:28:00,41.8,31.6,29.88,SW,225,2.0,2.2,67,0.00,,,0.00,WUHU216HW,2013-01-20 08:28:00,
2013-01-20 03:33:00,41.8,31.6,29.87,ESE,113,1.1,2.0,67,0.00,,,0.00,WUHU216HW,2013-01-20 08:33:00,
2013-01-20 03:38:00,41.6,31.4,29.87,North,0,2.5,2.5,67,0.00,,,0.00,WUHU216HW,2013-01-20 08:38:00,
2013-01-20 03:43:00,41.6,31.8,29.87,SW,225,2.2,2.5,68,0.00,,,0.00,WUHU216HW,2013-01-20 08:43:00,
2013-01-20 03:48:00,41.6,31.8,29.87,SSW,203,0.4,2.5,68,0.00,,,0.00,WUHU216HW,2013-01-20 08:48:00,
2013-01-20 03:53:00,41.6,32.2,29.87,ENE,68,0.7,2.9,69,0.00,,,0.00,WUHU216HW,2013-01-20 08:53:00,
2013-01-20 03:58:00,41.6,32.2,29.87,SSW,203,3.1,3.1,69,0.00,,,0.00,WUHU216HW,2013-01-20 08:58:00,
2013-01-20 04:03:00,41.8,32.8,29.87,SSW,203,0.7,3.1,70,0.00,,,0.00,WUHU216HW,2013-01-20 09:03:00,
2013-01-20 04:08:00,41.8,32.8,29.87,West,270,1.3,3.1,70,0.00,,,0.00,WUHU216HW,2013-01-20 09:08:00,
2013-01-20 04:13:00,41.6,32.6,29.86,SSE,158,3.1,3.1,70,0.00,,,0.00,WUHU216HW,2013-01-20 09:13:00,
2013-01-20 04:18:00,41.6,32.6,29.85,SW,225,1.8,3.1,70,0.00,,,0.00,WUHU216HW,2013-01-20 09:18:00,
2013-01-20 04:23:00,41.6,32.6,29.85,SSW,203,0.9,3.1,70,0.00,,,0.00,WUHU216HW,2013-01-20 09:23:00,
2013-01-20 04:28:00,41.4,32.8,29.84,SSE,158,2.9,2.9,71,0.00,,,0.00,WUHU216HW,2013-01-20 09:28:00,
2013-01-20 04:33:00,41.4,32.8,29.84,SSW,203,2.7,2.9,71,0.00,,,0.00,WUHU216HW,2013-01-20 09:33:00,
2013-01-20 04:38:00,41.4,32.8,29.84,North,0,1.1,3.1,71,0.00,,,0.00,WUHU216HW,2013-01-20 09:38:00,
2013-01-20 04:43:00,41.4,32.8,29.84,SSW,203,1.1,3.1,71,0.00,,,0.00,WUHU216HW,2013-01-20 09:43:00,
2013-01-20 04:48:00,41.4,32.8,29.83,SE,135,1.3,1.8,71,0.00,,,0.00,WUHU216HW,2013-01-20 09:48:00,
2013-01-20 04:53:00,41.4,32.8,29.83,SSW,203,1.1,2.2,71,0.00,,,0.00,WUHU216HW,2013-01-20 09:53:00,
2013-01-20 04:58:00,41.4,32.8,29.83,SSE,158,2.0,3.4,71,0.00,,,0.00,WUHU216HW,2013-01-20 09:58:00,
2013-01-20 05:03:00,41.4,32.8,29.83,SE,135,2.7,3.4,71,0.00,,,0.00,WUHU216HW,2013-01-20 10:03:00,
2013-01-20 05:08:00,41.4,32.8,29.83,South,180,3.1,3.1,71,0.00,,,0.00,WUHU216HW,2013-01-20 10:08:00,
2013-01-20 05:13:00,41.4,32.8,29.82,SW,225,2.5,3.1,71,0.00,,,0.00,WUHU216HW,2013-01-20 10:13:00,
2013-01-20 05:18:00,41.4,32.8,29.82,SSW,203,2.5,3.6,71,0.00,,,0.00,WUHU216HW,2013-01-20 10:18:00,
2013-01-20 05:23:00,41.4,32.8,29.82,South,180,1.8,3.6,71,0.00,,,0.00,WUHU216HW,2013-01-20 10:23:00,
2013-01-20 05:28:00,41.2,32.6,29.81,SSW,203,1.8,2.5,71,0.00,,,0.00,WUHU216HW,2013-01-20 10:28:00,
2013-01-20 05:33:00,41.2,32.6,29.81,SSW,203,3.4,3.4,71,0.00,,,0.00,WUHU216HW,2013-01-20 10:33:00,
2013-01-20 05:38:00,41.2,32.6,29.81,SSE,158,2.5,3.4,71,0.00,,,0.00,WUHU216HW,2013-01-20 10:38:00,
2013-01-20 05:43:00,41.0,32.4,29.80,SSW,203,1.8,3.4,71,0.00,,,0.00,WUHU216HW,2013-01-20 10:43:00,
2013-01-20 05:48:00,41.0,32.4,29.80,South,180,1.8,2.5,71,0.00,,,0.00,WUHU216HW,2013-01-20 10:48:00,
2013-01-20 05:53:00,41.0,32.4,29.79,SSW,203,0.9,2.2,71,0.00,,,0.00,WUHU216HW,2013-01-20 10:53:00,
2013-01-20 05:58:00,41.0,32.4,29.79,WSW,248,1.8,2.2,71,0.00,,,0.00,WUHU216HW,2013-01-20 10:58:00,
2013-01-20 06:03:00,41.0,32.4,29.79,East,90,0.7,1.8,71,0.00,,,0.00,WUHU216HW,2013-01-20 11:03:00,
2013-01-20 06:08:00,40.9,32.2,29.79,SW,225,1.1,2.5,71,0.00,,,0.00,WUHU216HW,2013-01-20 11:08:00,
2013-01-20 06:13:00,41.0,32.4,29.78,SW,225,2.5,2.5,71,0.00,,,0.00,WUHU216HW,2013-01-20 11:13:00,
2013-01-20 06:18:00,41.0,32.4,29.78,ESE,113,3.4,3.4,71,0.00,,,0.00,WUHU216HW,2013-01-20 11:18:00,
2013-01-20 06:23:00,41.0,32.4,29.77,SSW,203,1.8,3.4,71,0.00,,,0.00,WUHU216HW,2013-01-20 11:23:00,
2013-01-20 06:28:00,41.0,32.4,29.77,SSW,203,1.6,3.4,71,0.00,,,0.00,WUHU216HW,2013-01-20 11:28:00,
2013-01-20 06:33:00,40.9,32.2,29.77,SSW,203,2.7,4.0,71,0.00,,,0.00,WUHU216HW,2013-01-20 11:33:00,
2013-01-20 06:38:00,40.9,32.2,29.77,South,180,1.8,4.0,71,0.00,,,0.00,WUHU216HW,2013-01-20 11:38:00,
2013-01-20 06:43:00,40.9,32.2,29.77,West,270,1.6,2.7,71,0.00,,,0.00,WUHU216HW,2013-01-20 11:43:00,
2013-01-20 06:48:00,40.9,32.2,29.77,SSW,203,0.4,1.8,71,0.00,,,0.00,WUHU216HW,2013-01-20 11:48:00,
2013-01-20 06:53:00,40.9,32.2,29.77,SW,225,1.3,1.6,71,0.00,,,0.00,WUHU216HW,2013-01-20 11:53:00,
2013-01-20 06:58:00,40.9,32.2,29.77,SSE,158,1.3,1.3,71,0.00,,,0.00,WUHU216HW,2013-01-20 11:58:00,
2013-01-20 07:03:00,40.9,32.2,29.77,SSE,158,0.9,1.3,71,0.00,,,0.00,WUHU216HW,2013-01-20 12:03:00,
2013-01-20 07:08:00,40.9,32.2,29.77,SSW,203,2.0,4.3,71,0.00,,,0.00,WUHU216HW,2013-01-20 12:08:00,
2013-01-20 07:13:00,40.9,32.2,29.77,SSW,203,1.8,4.3,71,0.00,,,0.00,WUHU216HW,2013-01-20 12:13:00,
2013-01-20 07:18:00,40.7,32.1,29.77,SSW,203,2.2,2.2,71,0.00,,,0.00,WUHU216HW,2013-01-20 12:18:00,
2013-01-20 07:23:00,40.9,32.2,29.77,SE,135,2.0,3.1,71,0.00,,,0.00,WUHU216HW,2013-01-20 12:23:00,
2013-01-20 07:28:00,40.9,32.2,29.76,SW,225,0.7,3.1,71,0.00,,,0.00,WUHU216HW,2013-01-20 12:28:00,
2013-01-20 07:33:00,40.9,32.2,29.76,West,270,0.9,2.5,71,0.00,,,0.00,WUHU216HW,2013-01-20 12:33:00,
2013-01-20 07:38:00,40.9,32.2,29.76,NW,315,1.1,2.5,71,0.00,,,0.00,WUHU216HW,2013-01-20 12:38:00,
2013-01-20 07:43:00,40.9,32.2,29.76,SSE,158,1.6,2.5,71,0.00,,,0.00,WUHU216HW,2013-01-20 12:43:00,
2013-01-20 07:48:00,40.9,32.2,29.76,South,180,2.2,2.5,71,0.00,,,0.00,WUHU216HW,2013-01-20 12:48:00,
2013-01-20 07:53:00,41.0,32.4,29.75,South,180,1.6,2.2,71,0.00,,,0.00,WUHU216HW,2013-01-20 12:53:00,
2013-01-20 07:58:00,41.0,32.4,29.75,SSE,158,2.2,2.2,71,0.00,,,0.00,WUHU216HW,2013-01-20 12:58:00,
2013-01-20 08:03:00,41.0,32.4,29.74,West,270,1.1,3.4,71,0.00,,,0.00,WUHU216HW,2013-01-20 13:03:00,
2013-01-20 08:08:00,41.2,32.6,29.74,NW,315,1.1,4.5,71,0.00,,,0.00,WUHU216HW,2013-01-20 13:08:00,
2013-01-20 08:13:00,41.4,32.4,29.74,SE,135,2.9,4.5,70,0.00,,,0.00,WUHU216HW,2013-01-20 13:13:00,
2013-01-20 08:18:00,41.6,32.6,29.75,NNE,23,1.1,2.9,70,0.00,,,0.00,WUHU216HW,2013-01-20 13:18:00,
2013-01-20 08:24:00,41.8,32.4,29.74,SSE,158,0.7,3.1,69,0.00,,,0.00,WUHU216HW,2013-01-20 13:24:00,
2013-01-20 08:29:00,41.8,32.4,29.74,SSE,158,3.4,3.4,69,0.00,,,0.00,WUHU216HW,2013-01-20 13:29:00,
2013-01-20 08:34:00,42.1,32.8,29.75,ESE,113,2.0,3.4,69,0.00,,,0.00,WUHU216HW,2013-01-20 13:34:00,
2013-01-20 08:39:00,42.3,32.5,29.74,SW,225,1.8,3.4,68,0.00,,,0.00,WUHU216HW,2013-01-20 13:39:00,
2013-01-20 08:44:00,42.5,32.7,29.74,ESE,113,4.3,4.3,68,0.00,,,0.00,WUHU216HW,2013-01-20 13:44:00,
2013-01-20 08:49:00,42.8,32.7,29.75,South,180,1.6,4.3,67,0.00,,,0.00,WUHU216HW,2013-01-20 13:49:00,
2013-01-20 08:54:00,43.0,32.9,29.74,SW,225,1.8,4.3,67,0.00,,,0.00,WUHU216HW,2013-01-20 13:54:00,
2013-01-20 08:59:00,43.2,33.0,29.75,ENE,68,1.8,3.6,67,0.00,,,0.00,WUHU216HW,2013-01-20 13:59:00,
2013-01-20 09:04:00,43.6,33.0,29.75,SSW,203,2.2,2.2,66,0.00,,,0.00,WUHU216HW,2013-01-20 14:04:00,
2013-01-20 09:09:00,43.6,32.6,29.74,SE,135,1.3,3.4,65,0.00,,,0.00,WUHU216HW,2013-01-20 14:09:00,
2013-01-20 09:14:00,43.9,32.5,29.74,WSW,248,3.8,3.8,64,0.00,,,0.00,WUHU216HW,2013-01-20 14:14:00,
2013-01-20 09:19:00,44.1,32.7,29.74,SSW,203,1.3,3.8,64,0.00,,,0.00,WUHU216HW,2013-01-20 14:19:00,
2013-01-20 09:24:00,44.3,32.5,29.74,South,180,4.5,4.5,63,0.00,,,0.00,WUHU216HW,2013-01-20 14:24:00,
2013-01-20 09:29:00,44.8,32.6,29.74,SSW,203,2.5,4.5,62,0.00,,,0.00,WUHU216HW,2013-01-20 14:29:00,
2013-01-20 09:34:00,45.0,32.4,29.74,SW,225,1.1,4.5,61,0.00,,,0.00,WUHU216HW,2013-01-20 14:34:00,
2013-01-20 09:39:00,45.4,32.3,29.74,SW,225,1.8,2.5,60,0.00,,,0.00,WUHU216HW,2013-01-20 14:39:00,
2013-01-20 09:44:00,45.7,32.2,29.74,NNE,23,2.2,4.0,59,0.00,,,0.00,WUHU216HW,2013-01-20 14:44:00,
2013-01-20 09:49:00,46.1,32.0,29.73,ESE,113,2.5,4.0,58,0.00,,,0.00,WUHU216HW,2013-01-20 14:49:00,
2013-01-20 09:54:00,46.4,32.0,29.73,SSW,203,1.3,2.5,57,0.00,,,0.00,WUHU216HW,2013-01-20 14:54:00,
2013-01-20 09:59:00,46.8,32.3,29.73,SSE,158,6.3,6.3,57,0.00,,,0.00,WUHU216HW,2013-01-20 14:59:00,
2013-01-20 10:04:00,47.3,31.9,29.73,SSE,158,3.4,6.3,55,0.00,,,0.00,WUHU216HW,2013-01-20 15:04:00,
2013-01-20 10:09:00,47.7,32.2,29.73,NNE,23,3.4,6.3,55,0.00,,,0.00,WUHU216HW,2013-01-20 15:09:00,
2013-01-20 10:14:00,47.9,32.0,29.73,SSW,203,6.3,6.3,54,0.00,,,0.00,WUHU216HW,2013-01-20 15:14:00,
2013-01-20 10:19:00,48.2,31.9,29.72,SW,225,6.7,6.7,53,0.00,,,0.00,WUHU216HW,2013-01-20 15:19:00,
2013-01-20 10:24:00,48.6,31.7,29.72,SE,135,5.4,6.7,52,0.00,,,0.00,WUHU216HW,2013-01-20 15:24:00,
2013-01-20 10:29:00,49.0,31.6,29.71,SSE,158,2.9,6.7,51,0.00,,,0.00,WUHU216HW,2013-01-20 15:29:00,
2013-01-20 10:34:00,49.3,32.0,29.71,ENE,68,2.9,5.4,51,0.00,,,0.00,WUHU216HW,2013-01-20 15:34:00,
2013-01-20 10:39:00,49.3,31.5,29.71,ENE,68,1.1,2.9,50,0.00,,,0.00,WUHU216HW,2013-01-20 15:39:00,
2013-01-20 10:44:00,49.7,31.9,29.70,SE,135,3.4,3.4,50,0.00,,,0.00,WUHU216HW,2013-01-20 15:44:00,
2013-01-20 10:49:00,49.7,31.9,29.70,SW,225,2.0,3.4,50,0.00,,,0.00,WUHU216HW,2013-01-20 15:49:00,
2013-01-20 10:54:00,49.9,31.5,29.70,SSW,203,2.5,3.4,49,0.00,,,0.00,WUHU216HW,2013-01-20 15:54:00,
2013-01-20 10:59:00,50.0,31.7,29.70,WSW,248,4.0,4.0,49,0.00,,,0.00,WUHU216HW,2013-01-20 15:59:00,
2013-01-20 11:04:00,50.0,31.7,29.69,SSW,203,3.4,4.0,49,0.00,,,0.00,WUHU216HW,2013-01-20 16:04:00,
2013-01-20 11:09:00,50.4,32.0,29.69,ESE,113,2.9,4.0,49,0.00,,,0.00,WUHU216HW,2013-01-20 16:09:00,
2013-01-20 11:14:00,50.6,31.6,29.68,ESE,113,2.9,3.4,48,0.00,,,0.00,WUHU216HW,2013-01-20 16:14:00,
2013-01-20 11:19:00,50.8,31.8,29.67,SW,225,3.1,3.1,48,0.00,,,0.00,WUHU216HW,2013-01-20 16:19:00,
2013-01-20 11:24:00,50.9,32.0,29.67,East,90,6.3,6.3,48,0.00,,,0.00,WUHU216HW,2013-01-20 16:24:00,
2013-01-20 11:29:00,51.3,31.7,29.66,South,180,6.0,6.3,47,0.00,,,0.00,WUHU216HW,2013-01-20 16:29:00,
2013-01-20 11:34:00,51.5,31.9,29.66,SE,135,3.1,6.3,47,0.00,,,0.00,WUHU216HW,2013-01-20 16:34:00,
2013-01-20 11:39:00,51.7,31.4,29.65,SE,135,1.8,6.0,46,0.00,,,0.00,WUHU216HW,2013-01-20 16:39:00,
2013-01-20 11:44:00,52.0,31.8,29.66,NNW,338,3.4,3.4,46,0.00,,,0.00,WUHU216HW,2013-01-20 16:44:00,
2013-01-20 11:49:00,52.2,31.4,29.65,SW,225,4.0,4.0,45,0.00,,,0.00,WUHU216HW,2013-01-20 16:49:00,
2013-01-20 11:54:00,52.4,31.0,29.65,East,90,9.2,9.2,44,0.00,,,0.00,WUHU216HW,2013-01-20 16:54:00,
2013-01-20 11:59:00,52.6,31.7,29.65,South,180,6.3,9.2,45,0.00,,,0.00,WUHU216HW,2013-01-20 16:59:00,
2013-01-20 12:04:00,52.7,31.3,29.65,ENE,68,2.9,9.2,44,0.00,,,0.00,WUHU216HW,2013-01-20 17:04:00,
2013-01-20 12:09:00,52.9,31.5,29.65,SE,135,2.2,6.3,44,0.00,,,0.00,WUHU216HW,2013-01-20 17:09:00,
2013-01-20 12:14:00,52.9,31.5,29.65,SW,225,3.4,3.4,44,0.00,,,0.00,WUHU216HW,2013-01-20 17:14:00,
2013-01-20 12:19:00,53.1,31.6,29.65,South,180,2.0,3.4,44,0.00,,,0.00,WUHU216HW,2013-01-20 17:19:00,
2013-01-20 12:24:00,52.9,31.5,29.65,SSW,203,0.7,3.4,44,0.00,,,0.00,WUHU216HW,2013-01-20 17:24:00,
2013-01-20 12:29:00,53.1,32.2,29.65,WNW,293,1.8,2.9,45,0.00,,,0.00,WUHU216HW,2013-01-20 17:29:00,
2013-01-20 12:34:00,53.1,31.6,29.65,SSE,158,2.9,2.9,44,0.00,,,0.00,WUHU216HW,2013-01-20 17:34:00,
2013-01-20 12:39:00,53.1,31.1,29.66,SW,225,2.9,2.9,43,0.00,,,0.00,WUHU216HW,2013-01-20 17:39:00,
2013-01-20 12:44:00,53.1,31.1,29.65,NE,45,0.7,2.9,43,0.00,,,0.00,WUHU216HW,2013-01-20 17:44:00,
2013-01-20 12:49:00,53.1,31.1,29.66,SSW,203,1.3,2.9,43,0.00,,,0.00,WUHU216HW,2013-01-20 17:49:00,
2013-01-20 12:54:00,53.1,31.1,29.66,NNE,23,4.0,4.0,43,0.00,,,0.00,WUHU216HW,2013-01-20 17:54:00,
2013-01-20 12:59:00,53.3,30.7,29.66,SW,225,2.0,4.0,42,0.00,,,0.00,WUHU216HW,2013-01-20 17:59:00,
2013-01-20 13:04:00,53.3,30.7,29.66,SSW,203,1.3,4.0,42,0.00,,,0.00,WUHU216HW,2013-01-20 18:04:00,
2013-01-20 13:09:00,53.1,31.1,29.66,North,0,0.4,2.5,43,0.00,,,0.00,WUHU216HW,2013-01-20 18:09:00,
2013-01-20 13:14:00,52.9,30.9,29.66,South,180,3.6,3.6,43,0.00,,,0.00,WUHU216HW,2013-01-20 18:14:00,
2013-01-20 13:19:00,53.1,30.5,29.66,WSW,248,3.1,3.6,42,0.00,,,0.00,WUHU216HW,2013-01-20 18:19:00,
2013-01-20 13:24:00,52.9,30.3,29.66,NW,315,1.8,3.6,42,0.00,,,0.00,WUHU216HW,2013-01-20 18:24:00,
2013-01-20 13:29:00,52.9,30.3,29.66,NW,315,0.4,3.1,42,0.00,,,0.00,WUHU216HW,2013-01-20 18:29:00,
2013-01-20 13:34:00,52.6,30.6,29.66,NE,45,2.9,2.9,43,0.00,,,0.00,WUHU216HW,2013-01-20 18:34:00,
2013-01-20 13:39:00,52.6,31.1,29.67,SSW,203,0.9,2.9,44,0.00,,,0.00,WUHU216HW,2013-01-20 18:39:00,
2013-01-20 13:44:00,52.6,31.1,29.67,SSW,203,3.4,3.4,44,0.00,,,0.00,WUHU216HW,2013-01-20 18:44:00,
2013-01-20 13:49:00,52.4,30.4,29.67,SSW,203,0.9,3.4,43,0.00,,,0.00,WUHU216HW,2013-01-20 18:49:00,
2013-01-20 13:54:00,52.2,30.2,29.68,ENE,68,0.9,3.4,43,0.00,,,0.00,WUHU216HW,2013-01-20 18:54:00,
2013-01-20 13:59:00,52.2,30.2,29.68,South,180,0.9,1.3,43,0.00,,,0.00,WUHU216HW,2013-01-20 18:59:00,
2013-01-20 14:04:00,51.8,30.0,29.68,ENE,68,1.1,1.1,43,0.00,,,0.00,WUHU216HW,2013-01-20 19:04:00,
2013-01-20 14:09:00,51.7,29.8,29.68,WNW,293,2.5,2.5,43,0.00,,,0.00,WUHU216HW,2013-01-20 19:09:00,
2013-01-20 14:14:00,51.5,30.2,29.69,SW,225,3.4,3.4,44,0.00,,,0.00,WUHU216HW,2013-01-20 19:14:00,
2013-01-20 14:19:00,51.1,30.4,29.70,SSW,203,2.7,3.4,45,0.00,,,0.00,WUHU216HW,2013-01-20 19:19:00,
2013-01-20 14:24:00,50.8,30.6,29.71,WSW,248,2.9,3.4,46,0.00,,,0.00,WUHU216HW,2013-01-20 19:24:00,
2013-01-20 14:29:00,50.0,30.5,29.71,West,270,2.2,2.9,47,0.00,,,0.00,WUHU216HW,2013-01-20 19:29:00,
2013-01-20 14:34:00,49.9,31.0,29.71,North,0,3.6,3.6,48,0.00,,,0.00,WUHU216HW,2013-01-20 19:34:00,
2013-01-20 14:39:00,49.5,30.6,29.72,NNE,23,1.8,3.6,48,0.00,,,0.00,WUHU216HW,2013-01-20 19:39:00,
2013-01-20 14:44:00,49.3,30.4,29.72,NNE,23,2.2,3.6,48,0.00,,,0.00,WUHU216HW,2013-01-20 19:44:00,
2013-01-20 14:49:00,49.1,30.8,29.72,ESE,113,0.7,2.2,49,0.00,,,0.00,WUHU216HW,2013-01-20 19:49:00,
2013-01-20 14:54:00,49.0,30.6,29.72,SE,135,2.2,2.2,49,0.00,,,0.00,WUHU216HW,2013-01-20 19:54:00,
2013-01-20 14:59:00,48.6,30.8,29.73,NW,315,0.2,2.2,50,0.00,,,0.00,WUHU216HW,2013-01-20 19:59:00,
2013-01-20 15:04:00,48.4,30.6,29.73,South,180,1.3,2.2,50,0.00,,,0.00,WUHU216HW,2013-01-20 20:04:00,
2013-01-20 15:09:00,48.4,30.6,29.74,SW,225,1.6,1.6,50,0.00,,,0.00,WUHU216HW,2013-01-20 20:09:00,
2013-01-20 15:14:00,48.2,30.4,29.74,NNE,23,1.8,1.8,50,0.00,,,0.00,WUHU216HW,2013-01-20 20:14:00,
2013-01-20 15:19:00,48.2,30.4,29.74,SSW,203,1.3,1.8,50,0.00,,,0.00,WUHU216HW,2013-01-20 20:19:00,
2013-01-20 15:24:00,48.1,29.7,29.74,SSW,203,1.8,1.8,49,0.00,,,0.00,WUHU216HW,2013-01-20 20:24:00,
2013-01-20 15:29:00,47.9,29.0,29.74,South,180,1.8,2.5,48,0.00,,,0.00,WUHU216HW,2013-01-20 20:29:00,
2013-01-20 15:34:00,47.9,29.0,29.74,SE,135,2.0,2.5,48,0.00,,,0.00,WUHU216HW,2013-01-20 20:34:00,
2013-01-20 15:39:00,47.9,29.0,29.75,SSE,158,0.9,2.0,48,0.00,,,0.00,WUHU216HW,2013-01-20 20:39:00,
2013-01-20 15:44:00,47.7,28.4,29.75,SSW,203,2.5,2.5,47,0.00,,,0.00,WUHU216HW,2013-01-20 20:44:00,
2013-01-20 15:49:00,47.5,28.2,29.75,NNE,23,1.8,2.5,47,0.00,,,0.00,WUHU216HW,2013-01-20 20:49:00,
2013-01-20 15:54:00,47.3,28.0,29.75,South,180,1.3,2.5,47,0.00,,,0.00,WUHU216HW,2013-01-20 20:54:00,
2013-01-20 15:59:00,47.2,27.3,29.76,South,180,0.4,1.8,46,0.00,,,0.00,WUHU216HW,2013-01-20 20:59:00,
2013-01-20 16:04:00,47.2,27.3,29.76,South,180,3.1,3.1,46,0.00,,,0.00,WUHU216HW,2013-01-20 21:04:00,
2013-01-20 16:09:00,46.8,26.5,29.76,South,180,1.8,3.1,45,0.00,,,0.00,WUHU216HW,2013-01-20 21:09:00,
2013-01-20 16:14:00,46.6,26.3,29.77,NE,45,0.4,3.1,45,0.00,,,0.00,WUHU216HW,2013-01-20 21:14:00,
2013-01-20 16:19:00,46.6,25.8,29.77,SSW,203,1.3,1.8,44,0.00,,,0.00,WUHU216HW,2013-01-20 21:19:00,
2013-01-20 16:24:00,46.4,25.6,29.77,SE,135,0.4,1.8,44,0.00,,,0.00,WUHU216HW,2013-01-20 21:24:00,
2013-01-20 16:29:00,46.4,25.6,29.77,East,90,0.4,1.3,44,0.00,,,0.00,WUHU216HW,2013-01-20 21:29:00,
2013-01-20 16:34:00,46.3,25.4,29.78,SSW,203,3.1,3.1,44,0.00,,,0.00,WUHU216HW,2013-01-20 21:34:00,
2013-01-20 16:39:00,46.1,24.7,29.78,SSE,158,0.4,3.1,43,0.00,,,0.00,WUHU216HW,2013-01-20 21:39:00,
2013-01-20 16:44:00,46.1,24.7,29.78,SE,135,0.9,3.1,43,0.00,,,0.00,WUHU216HW,2013-01-20 21:44:00,
2013-01-20 16:49:00,45.9,24.0,29.79,SE,135,2.2,2.2,42,0.00,,,0.00,WUHU216HW,2013-01-20 21:49:00,
2013-01-20 16:54:00,45.7,22.1,29.79,North,0,2.5,2.5,39,0.00,,,0.00,WUHU216HW,2013-01-20 21:54:00,
2013-01-20 16:59:00,45.7,21.4,29.79,SSE,158,1.3,2.5,38,0.00,,,0.00,WUHU216HW,2013-01-20 21:59:00,
2013-01-20 17:04:00,45.5,22.0,29.80,ESE,113,1.3,2.5,39,0.00,,,0.00,WUHU216HW,2013-01-20 22:04:00,
2013-01-20 17:09:00,45.4,21.8,29.81,North,0,1.1,1.3,39,0.00,,,0.00,WUHU216HW,2013-01-20 22:09:00,
2013-01-20 17:14:00,45.0,20.8,29.82,ESE,113,0.4,1.3,38,0.00,,,0.00,WUHU216HW,2013-01-20 22:14:00,
2013-01-20 17:19:00,44.6,20.4,29.82,North,0,2.5,2.5,38,0.00,,,0.00,WUHU216HW,2013-01-20 22:19:00,
2013-01-20 17:24:00,44.5,20.3,29.82,North,0,2.9,2.9,38,0.00,,,0.00,WUHU216HW,2013-01-20 22:24:00,
2013-01-20 17:29:00,44.3,20.2,29.83,NW,315,0.4,2.9,38,0.00,,,0.00,WUHU216HW,2013-01-20 22:29:00,
2013-01-20 17:34:00,43.9,19.2,29.84,NNE,23,3.4,3.4,37,0.00,,,0.00,WUHU216HW,2013-01-20 22:34:00,
2013-01-20 17:39:00,43.2,19.2,29.84,WSW,248,1.6,3.4,38,0.00,,,0.00,WUHU216HW,2013-01-20 22:39:00,
2013-01-20 17:44:00,43.0,19.0,29.84,East,90,0.2,3.4,38,0.00,,,0.00,WUHU216HW,2013-01-20 22:44:00,
2013-01-20 17:49:00,42.8,19.5,29.85,NNE,23,1.1,1.6,39,0.00,,,0.00,WUHU216HW,2013-01-20 22:49:00,
2013-01-20 17:54:00,42.5,19.2,29.86,NNW,338,0.9,1.6,39,0.00,,,0.00,WUHU216HW,2013-01-20 22:54:00,
2013-01-20 17:59:00,42.1,18.8,29.87,North,0,4.9,4.9,39,0.00,,,0.00,WUHU216HW,2013-01-20 22:59:00,
2013-01-20 18:04:00,41.6,19.0,29.87,NNE,23,2.2,4.9,40,0.00,,,0.00,WUHU216HW,2013-01-20 23:04:00,
2013-01-20 18:09:00,41.2,18.1,29.87,NNW,338,1.8,4.9,39,0.00,,,0.00,WUHU216HW,2013-01-20 23:09:00,
2013-01-20 18:14:00,40.9,18.4,29.87,SE,135,4.0,4.0,40,0.00,,,0.00,WUHU216HW,2013-01-20 23:14:00,
2013-01-20 18:19:00,40.5,18.1,29.88,SE,135,2.0,4.0,40,0.00,,,0.00,WUHU216HW,2013-01-20 23:19:00,
2013-01-20 18:24:00,40.1,18.3,29.88,NW,315,1.1,4.0,41,0.00,,,0.00,WUHU216HW,2013-01-20 23:24:00,
2013-01-20 18:29:00,40.0,18.6,29.89,North,0,1.8,2.0,42,0.00,,,0.00,WUHU216HW,2013-01-20 23:29:00,
2013-01-20 18:34:00,39.6,18.3,29.89,SSE,158,2.0,2.0,42,0.00,,,0.00,WUHU216HW,2013-01-20 23:34:00,
2013-01-20 18:39:00,39.2,18.5,29.89,NNW,338,2.0,2.0,43,0.00,,,0.00,WUHU216HW,2013-01-20 23:39:00,
2013-01-20 18:44:00,39.1,18.4,29.90,SW,225,3.4,3.4,43,0.00,,,0.00,WUHU216HW,2013-01-20 23:44:00,
2013-01-20 18:49:00,38.7,18.0,29.89,SW,225,2.9,3.4,43,0.00,,,0.00,WUHU216HW,2013-01-20 23:49:00,
2013-01-20 18:54:00,38.5,17.8,29.90,ENE,68,1.8,3.4,43,0.00,,,0.00,WUHU216HW,2013-01-20 23:54:00,
2013-01-20 18:59:00,38.3,18.2,29.90,South,180,0.4,2.9,44,0.00,,,0.00,WUHU216HW,2013-01-20 23:59:00,
2013-01-20 19:04:00,38.2,18.0,29.91,SE,135,0.0,1.8,44,0.00,,,0.00,WUHU216HW,2013-01-21 00:04:00,
2013-01-20 19:09:00,38.0,17.9,29.91,SE,135,0.0,1.1,44,0.00,,,0.00,WUHU216HW,2013-01-21 00:09:00,
2013-01-20 19:14:00,37.8,17.7,29.91,NNW,338,0.9,2.7,44,0.00,,,0.00,WUHU216HW,2013-01-21 00:14:00,
2013-01-20 19:19:00,37.4,17.4,29.91,North,0,0.7,2.7,44,0.00,,,0.00,WUHU216HW,2013-01-21 00:19:00,
2013-01-20 19:24:00,37.3,17.2,29.92,NNW,338,1.1,2.2,44,0.00,,,0.00,WUHU216HW,2013-01-21 00:24:00,
2013-01-20 19:29:00,37.1,17.6,29.91,SW,225,1.1,1.8,45,0.00,,,0.00,WUHU216HW,2013-01-21 00:29:00,
2013-01-20 19:34:00,36.7,17.3,29.91,NW,315,0.4,1.8,45,0.00,,,0.00,WUHU216HW,2013-01-21 00:34:00,
2013-01-20 19:39:00,36.5,17.1,29.92,SSE,158,2.2,2.2,45,0.00,,,0.00,WUHU216HW,2013-01-21 00:39:00,
2013-01-20 19:44:00,36.4,16.9,29.92,SSW,203,3.4,3.4,45,0.00,,,0.00,WUHU216HW,2013-01-21 00:44:00,
2013-01-20 19:49:00,36.4,16.9,29.92,NE,45,0.0,3.4,45,0.00,,,0.00,WUHU216HW,2013-01-21 00:49:00,
2013-01-20 19:54:00,36.0,16.1,29.92,NW,315,1.8,3.4,44,0.00,,,0.00,WUHU216HW,2013-01-21 00:54:00,
2013-01-20 19:59:00,35.8,15.9,29.93,SSW,203,2.5,4.3,44,0.00,,,0.00,WUHU216HW,2013-01-21 00:59:00,
2013-01-20 20:04:00,35.6,15.8,29.93,North,0,1.1,4.3,44,0.00,,,0.00,WUHU216HW,2013-01-21 01:04:00,
2013-01-20 20:09:00,35.3,15.4,29.94,ESE,113,1.1,2.5,44,0.00,,,0.00,WUHU216HW,2013-01-21 01:09:00,
2013-01-20 20:14:00,35.3,15.4,29.94,ENE,68,4.3,4.3,44,0.00,,,0.00,WUHU216HW,2013-01-21 01:14:00,
2013-01-20 20:19:00,34.9,15.1,29.94,SSW,203,1.8,4.3,44,0.00,,,0.00,WUHU216HW,2013-01-21 01:19:00,
2013-01-20 20:24:00,34.9,15.1,29.95,SSE,158,0.9,4.3,44,0.00,,,0.00,WUHU216HW,2013-01-21 01:24:00,
2013-01-20 20:29:00,34.7,14.4,29.95,ESE,113,1.1,1.8,43,0.00,,,0.00,WUHU216HW,2013-01-21 01:29:00,
2013-01-20 20:34:00,34.6,14.8,29.96,SSW,203,2.0,2.0,44,0.00,,,0.00,WUHU216HW,2013-01-21 01:34:00,
2013-01-20 20:39:00,34.4,14.6,29.96,NNE,23,0.7,2.5,44,0.00,,,0.00,WUHU216HW,2013-01-21 01:39:00,
2013-01-20 20:44:00,34.2,14.4,29.97,SE,135,2.0,2.5,44,0.00,,,0.00,WUHU216HW,2013-01-21 01:44:00,
2013-01-20 20:49:00,34.0,13.8,29.97,South,180,2.2,2.2,43,0.00,,,0.00,WUHU216HW,2013-01-21 01:49:00,
2013-01-20 20:54:00,33.8,14.0,29.97,NW,315,0.9,2.2,44,0.00,,,0.00,WUHU216HW,2013-01-21 01:54:00,
2013-01-20 20:59:00,33.7,14.0,29.97,SE,135,0.7,2.2,44,0.00,,,0.00,WUHU216HW,2013-01-21 01:59:00,
2013-01-20 21:04:00,33.5,13.2,29.98,NE,45,1.1,2.5,43,0.00,,,0.00,WUHU216HW,2013-01-21 02:04:00,
2013-01-20 21:09:00,33.5,13.2,29.98,WSW,248,3.6,3.6,43,0.00,,,0.00,WUHU216HW,2013-01-21 02:09:00,
2013-01-20 21:14:00,33.1,12.4,29.99,NNE,23,1.8,3.6,42,0.00,,,0.00,WUHU216HW,2013-01-21 02:14:00,
2013-01-20 21:19:00,33.1,13.0,29.99,SSW,203,1.1,1.8,43,0.00,,,0.00,WUHU216HW,2013-01-21 02:19:00,
2013-01-20 21:24:00,32.8,12.1,30.00,East,90,1.8,1.8,42,0.00,,,0.00,WUHU216HW,2013-01-21 02:24:00,
2013-01-20 21:29:00,32.8,12.6,29.99,NNE,23,1.8,2.0,43,0.00,,,0.00,WUHU216HW,2013-01-21 02:29:00,
2013-01-20 21:34:00,32.8,12.6,30.00,SW,225,1.6,2.0,43,0.00,,,0.00,WUHU216HW,2013-01-21 02:34:00,
2013-01-20 21:39:00,32.6,12.4,30.00,SSE,158,0.2,1.8,43,0.00,,,0.00,WUHU216HW,2013-01-21 02:39:00,
2013-01-20 21:44:00,32.4,11.8,30.00,SE,135,0.9,3.1,42,0.00,,,0.00,WUHU216HW,2013-01-21 02:44:00,
2013-01-20 21:49:00,32.2,11.6,30.00,SW,225,1.1,3.1,42,0.00,,,0.00,WUHU216HW,2013-01-21 02:49:00,
2013-01-20 21:54:00,32.0,11.4,30.00,NNE,23,1.8,2.9,42,0.00,,,0.00,WUHU216HW,2013-01-21 02:54:00,
2013-01-20 21:59:00,32.0,12.0,30.00,SSW,203,0.4,1.8,43,0.00,,,0.00,WUHU216HW,2013-01-21 02:59:00,
2013-01-20 22:04:00,32.0,12.0,30.00,SSW,203,0.7,1.8,43,0.00,,,0.00,WUHU216HW,2013-01-21 03:04:00,
2013-01-20 22:09:00,31.9,11.8,30.00,SW,225,0.2,1.1,43,0.00,,,0.00,WUHU216HW,2013-01-21 03:09:00,
2013-01-20 22:14:00,31.9,11.8,30.00,South,180,2.9,2.9,43,0.00,,,0.00,WUHU216HW,2013-01-21 03:14:00,
2013-01-20 22:19:00,31.7,11.6,30.00,WSW,248,1.1,2.9,43,0.00,,,0.00,WUHU216HW,2013-01-21 03:19:00,
2013-01-20 22:24:00,31.5,11.4,30.01,ENE,68,1.6,2.9,43,0.00,,,0.00,WUHU216HW,2013-01-21 03:24:00,
2013-01-20 22:29:00,31.3,11.4,30.01,NW,315,0.4,1.6,43,0.00,,,0.00,WUHU216HW,2013-01-21 03:29:00,
2013-01-20 22:34:00,31.3,11.4,30.01,SSE,158,1.3,1.6,43,0.00,,,0.00,WUHU216HW,2013-01-21 03:34:00,
2013-01-20 22:39:00,31.3,11.4,30.01,ESE,113,1.3,1.6,43,0.00,,,0.00,WUHU216HW,2013-01-21 03:39:00,
2013-01-20 22:44:00,31.3,11.4,30.01,SSE,158,0.2,1.6,43,0.00,,,0.00,WUHU216HW,2013-01-21 03:44:00,
2013-01-20 22:49:00,31.1,11.6,30.01,South,180,0.2,1.3,44,0.00,,,0.00,WUHU216HW,2013-01-21 03:49:00,
2013-01-20 22:54:00,31.1,11.6,30.00,East,90,0.2,1.3,44,0.00,,,0.00,WUHU216HW,2013-01-21 03:54:00,
2013-01-20 22:59:00,31.0,11.5,30.01,WSW,248,1.3,1.8,44,0.00,,,0.00,WUHU216HW,2013-01-21 03:59:00,
2013-01-20 23:04:00,31.0,11.5,30.01,South,180,1.1,1.8,44,0.00,,,0.00,WUHU216HW,2013-01-21 04:04:00,
2013-01-20 23:09:00,30.8,11.4,30.01,East,90,1.1,1.6,44,0.00,,,0.00,WUHU216HW,2013-01-21 04:09:00,
2013-01-20 23:14:00,31.0,11.5,30.01,WSW,248,1.8,1.8,44,0.00,,,0.00,WUHU216HW,2013-01-21 04:14:00,
2013-01-20 23:19:00,31.0,11.5,30.01,WSW,248,1.8,1.8,44,0.00,,,0.00,WUHU216HW,2013-01-21 04:19:00,
2013-01-20 23:24:00,31.0,11.5,30.02,WSW,248,1.8,1.8,44,0.00,,,0.00,WUHU216HW,2013-01-21 04:24:00,
2013-01-20 23:29:00,30.6,11.2,30.02,NNE,23,0.4,1.8,44,0.00,,,0.00,WUHU216HW,2013-01-21 04:29:00,
2013-01-20 23:34:00,30.6,11.2,30.02,NNE,23,0.4,1.8,44,0.00,,,0.00,WUHU216HW,2013-01-21 04:34:00,
2013-01-20 23:39:00,30.6,11.2,30.02,NNE,23,0.4,0.4,44,0.00,,,0.00,WUHU216HW,2013-01-21 04:39:00,
2013-01-20 23:44:00,30.4,11.5,30.02,SE,135,0.4,0.7,45,0.00,,,0.00,WUHU216HW,2013-01-21 04:44:00,
2013-01-20 23:49:00,30.4,11.5,30.02,SE,135,0.4,0.7,45,0.00,,,0.00,WUHU216HW,2013-01-21 04:49:00,
2013-01-20 23:54:00,30.4,11.5,30.02,SE,135,0.4,0.4,45,0.00,,,0.00,WUHU216HW,2013-01-21 04:54:00,
2013-01-20 23:59:00,30.2,11.3,30.02,SSE,158,0.4,0.4,45,0.00,,,0.00,WUHU216HW,2013-01-21 04:59:00,